Location: Christianberg
(48.9086°N, 14.0209°E)
Time: 22:15:03
(UTC+00:00)

NOSS 2-2 (E) - Pass Details

Date: 20 June 2021
Orbit: 448 x 1757 km, 63.3° (Epoch: 02 August)

Event Time Altitude Azimuth Distance (km) Brightness Sun altitude
Exits shadow 02:07:52 - 253° (WSW) 1,924 5.6 -7.0°
Reaches altitude 10° 02:08:42 10° 258° (WSW) 1,603 5.2 -6.9°
Maximum altitude 02:11:51 32° 325° (NW) 864 4.5 -6.6°
Drops below altitude 10° 02:15:31 10° 30° (NNE) 1,871 7.7 -6.2°
Sets 02:18:12 0° 40° (NE) 2,943 9.9 -5.9°
